STARLINK-2555 (48291 NORAD) Tracking and Keplerian Element Data

This shows tracking and keplerian element data for the satellite.

Feedback or suggestion? Click here.




ElementValue
Catalog48291
NameSTARLINK-2555
Epoch Orbit197
Epoch Day173.83334491
Epoch Year2021
RAAN257.2638
Inclination53.0521
Eccentricity0.0001643
Argument of Perigee40.4556
Mean Anonmoly337.3755
Mean Motion15.72754805
Decay Rate0.00754686
L11 48291U 21036R 21173.83334491 .00754686 00000-0 50067-2 0 9991
L22 48291 53.0521 257.2638 0001643 40.4556 337.3755 15.72754805 1977

Live tracking and technical data element details for STARLINK-2555 (NORAD 48291). STARLINK-2555 can be tracked NOW for your location showing map with azimuth and elevation plus other details from your city location.

Track the satellite on the map from your city or location and see movement details for azimuth, elevation, latitude, longitude, range, height, and movement on the map or in text.







IsCatalogInMostPopularTable: catalog: 48291, numindb: 21
Update: records affected: 1



GetName: 48291 STARLINK-2555

Hit Count: updated at: Thu, 24 Jun 2021 03:14:07 GMT